N1MRE Weather Reports


time (UTC)temp
C
wind
direction
speed
KPH
gust
KPH
rain 1hr
cm
rain 24hr
cm
rain mn
cm
humidity
%
barometer
mb
20260507050105 9 21 3.2 9.7 0.05 0.81 0.05 89 1004.7
20260507044555 10 34 3.2 12.9 0.08 0.81 0.05 89 1004.7
20260507043051 10 18 6.4 14.5 0.08 0.81 0.05 89 1004.9
20260507041550 10 59 4.8 16.1 0.08 0.79 0.03 89 1004.8
20260507040058 11 64 8.0 16.1 0.05 0.76 0.00 89 1004.9
20260507034550 11 35 4.8 11.3 0.05 0.74 0.74 89 1004.7
20260507033050 12 351 4.8 14.5 0.08 0.71 0.71 89 1004.9
20260507031548 12 5 4.8 14.5 0.08 0.71 0.71 88 1004.4
20260507030052 13 360 3.2 9.7 0.08 0.71 0.71 88 1004.3
20260507024549 13 20 1.6 16.1 0.08 0.69 0.69 88 1004.0
20260507023057 14 0 0.0 0.0 0.03 0.64 0.64 89 1003.7
20260507021605 14 0 0.0 3.2 0.03 0.64 0.64 88 1003.8
20260507020057 14 0 0.0 6.4 0.00 0.61 0.61 88 1003.8
20260507014557 14 0 0.0 0.0 0.00 0.61 0.61 88 1003.7
20260507013054 14 171 1.6 8.0 0.00 0.61 0.61 88 1003.6
20260507011600 14 0 0.0 4.8 0.00 0.61 0.61 88 1003.9
20260507010055 14 0 0.0 8.0 0.00 0.61 0.61 88 1003.6
20260507004600 14 179 0.0 6.4 0.00 0.61 0.61 88 1003.7
20260507003056 14 174 1.6 14.5 0.00 0.61 0.61 88 1003.8
20260507001606 15 207 3.2 14.5 0.00 0.61 0.61 88 1003.5
20260507000057 15 183 4.8 19.3 0.03 0.61 0.61 88 1003.2
20260506234615 15 213 6.4 14.5 0.03 0.61 0.61 88 1003.1
20260506233056 15 189 4.8 17.7 0.03 0.61 0.61 88 1003.1
20260506231546 15 189 6.4 25.7 0.05 0.61 0.61 88 1003.1
20260506230056 15 220 4.8 19.3 0.05 0.58 0.58 88 1002.9
20260506224548 15 146 6.4 24.1 0.08 0.58 0.58 88 1003.1
20260506223056 15 160 4.8 14.5 0.13 0.58 0.58 88 1003.4
20260506221555 15 168 3.2 16.1 0.13 0.56 0.56 87 1003.5
20260506220053 15 0 1.6 12.9 0.10 0.53 0.53 88 1003.7
20260506214554 15 0 4.8 12.9 0.08 0.51 0.51 87 1004.0
20260506213055 15 171 6.4 16.1 0.08 0.46 0.46 87 1004.2
20260506211554 15 153 1.6 12.9 0.13 0.43 0.43 87 1004.4
20260506210059 15 187 3.2 16.1 0.18 0.43 0.43 87 1004.6
20260506204600 15 195 3.2 16.1 0.20 0.43 0.43 87 1004.7
20260506203053 15 184 6.4 17.7 0.18 0.38 0.38 87 1004.7
20260506201556 15 201 4.8 12.9 0.13 0.30 0.30 87 1004.6
20260506200107 16 189 4.8 17.7 0.08 0.25 0.25 87 1004.6
20260506194606 16 188 8.0 25.7 0.08 0.23 0.23 87 1004.8
20260506193055 16 168 6.4 19.3 0.08 0.20 0.20 87 1005.1
20260506191553 16 189 6.4 16.1 0.08 0.18 0.18 87 1005.1
20260506190050 16 158 3.2 11.3 0.13 0.18 0.18 87 1005.1
20260506184550 16 197 0.0 0.0 0.10 0.15 0.15 87 1005.4
20260506183101 16 0 0.0 8.0 0.13 0.13 0.13 87 1005.8
20260506181554 16 213 3.2 6.4 0.10 0.10 0.10 86 1005.9
20260506180055 17 198 1.6 8.0 0.05 0.05 0.05 85 1005.7
20260506174550 17 169 3.2 11.3 0.05 0.05 0.05 82 1005.8
20260506173055 18 209 4.8 14.5 0.00 0.00 0.00 77 1005.7
20260506171550 18 209 6.4 16.1 0.00 0.00 0.00 76 1005.7
20260506170053 18 138 3.2 16.1 0.00 0.00 0.00 76 1006.0
20260506164553 18 169 3.2 14.5 0.00 0.00 0.00 78 1006.0
20260506163055 17 221 1.6 11.3 0.00 0.00 0.00 79 1006.8
20260506161603 17 222 1.6 17.7 0.00 0.00 0.00 78 1007.3
20260506160056 18 175 6.4 16.1 0.00 0.00 0.00 76 1007.6
20260506154555 18 182 1.6 16.1 0.00 0.00 0.00 75 1007.4
20260506153048 18 171 6.4 16.1 0.00 0.00 0.00 74 1007.5
20260506151604 17 211 4.8 24.1 0.00 0.00 0.00 75 1008.0
20260506150052 18 239 3.2 19.3 0.00 0.00 0.00 73 1007.7
20260506144551 18 209 8.0 24.1 0.00 0.00 0.00 73 1007.6
20260506143056 18 190 3.2 16.1 0.00 0.00 0.00 74 1007.7
20260506141547 17 208 3.2 11.3 0.00 0.00 0.00 73 1007.4
20260506140056 17 173 0.0 9.7 0.00 0.00 0.00 74 1007.8
20260506134553 17 0 1.6 9.7 0.00 0.00 0.00 75 1008.1
20260506133056 17 0 0.0 0.0 0.00 0.00 0.00 74 1008.0
20260506131601 17 0 0.0 4.8 0.00 0.00 0.00 75 1008.2
20260506130120 16 0 0.0 0.0 0.00 0.00 0.00 76 1008.0
20260506124555 16 0 0.0 3.2 0.00 0.00 0.00 75 1008.0
20260506123058 16 215 0.0 9.7 0.00 0.00 0.00 77 1008.3
20260506121555 16 209 3.2 14.5 0.00 0.00 0.00 81 1008.3
20260506120100 15 0 0.0 6.4 0.00 0.00 0.00 85 1008.3
20260506114550 14 0 1.6 4.8 0.00 0.00 0.00 87 1008.6
20260506113058 13 183 0.0 8.0 0.00 0.00 0.00 87 1008.5
20260506111554 13 0 0.0 3.2 0.00 0.00 0.00 87 1008.7
20260506110059 12 0 0.0 0.0 0.00 0.00 0.00 88 1008.5
20260506104610 12 0 0.0 0.0 0.00 0.00 0.00 87 1008.7
20260506103048 12 0 0.0 0.0 0.00 0.00 0.00 87 1008.6
20260506101554 12 0 0.0 0.0 0.00 0.00 0.00 87 1008.4
20260506100048 12 0 0.0 0.0 0.00 0.00 0.00 87 1008.3
20260506094556 12 0 0.0 0.0 0.00 0.00 0.00 87 1008.2
20260506093055 13 0 0.0 0.0 0.00 0.00 0.00 87 1008.3
20260506091554 13 0 0.0 0.0 0.00 0.00 0.00 86 1008.4
20260506090050 13 0 0.0 0.0 0.00 0.00 0.00 86 1008.1
20260506084554 13 0 0.0 0.0 0.00 0.00 0.00 86 1008.1
20260506083048 13 0 0.0 8.0 0.00 0.00 0.00 86 1008.1
20260506081556 13 194 1.6 9.7 0.00 0.00 0.00 86 1008.0
20260506073100 14 0 1.6 8.0 0.00 0.00 0.00 86 1007.7
20260506071607 14 0 0.0 1.6 0.00 0.00 0.00 85 1007.7
20260506061546 14 173 1.6 8.0 0.00 0.00 0.00 85 1007.3